Time,TemperatureF,DewpointF,PressureIn,WindDirection,WindDirectionDegrees,WindSpeedMPH,WindSpeedGustMPH,Humidity,HourlyPrecipIn,Conditions,Clouds,dailyrainin,SoftwareType,DateUTC
2013-04-04 00:10:00,33.1,10.0,30.13,ENE,61,2.0,-999.0,38,-99.99,,,0.00,weatherlink.com 1.10,2013-04-04 04:10:00,
2013-04-04 00:25:00,32.9,10.0,30.13,NW,309,1.0,-999.0,38,-99.99,,,0.00,weatherlink.com 1.10,2013-04-04 04:25:00,
2013-04-04 00:40:00,32.8,10.0,30.14,North,0,2.0,-999.0,38,-99.99,,,0.00,weatherlink.com 1.10,2013-04-04 04:40:00,
2013-04-04 00:55:00,32.7,10.0,30.14,NNE,30,0.0,-999.0,38,-99.99,,,0.00,weatherlink.com 1.10,2013-04-04 04:55:00,
2013-04-04 01:10:00,32.5,10.0,30.14,SE,124,2.0,-999.0,39,-99.99,,,0.00,weatherlink.com 1.10,2013-04-04 05:10:00,
2013-04-04 01:25:00,32.2,10.0,30.15,SW,229,2.0,-999.0,39,-99.99,,,0.00,weatherlink.com 1.10,2013-04-04 05:25:00,
2013-04-04 01:40:00,31.9,9.0,30.16,WSW,246,1.0,-999.0,39,-99.99,,,0.00,weatherlink.com 1.10,2013-04-04 05:40:00,
2013-04-04 01:55:00,31.6,10.0,30.16,NNE,14,0.0,-999.0,41,-99.99,,,0.00,weatherlink.com 1.10,2013-04-04 05:55:00,
2013-04-04 02:10:00,31.3,10.0,30.16,NNE,14,2.0,-999.0,41,-99.99,,,0.00,weatherlink.com 1.10,2013-04-04 06:10:00,
2013-04-04 02:25:00,31.2,10.0,30.16,WSW,237,0.0,-999.0,42,-99.99,,,0.00,weatherlink.com 1.10,2013-04-04 06:25:00,
2013-04-04 02:40:00,31.0,11.0,30.17,SW,226,1.0,-999.0,43,-99.99,,,0.00,weatherlink.com 1.10,2013-04-04 06:40:00,
2013-04-04 02:55:00,30.9,11.0,30.16,WNW,294,3.0,-999.0,43,-99.99,,,0.00,weatherlink.com 1.10,2013-04-04 06:55:00,
2013-04-04 03:10:00,30.9,11.0,30.16,WSW,254,0.0,-999.0,43,-99.99,,,0.00,weatherlink.com 1.10,2013-04-04 07:10:00,
2013-04-04 03:25:00,30.7,11.0,30.16,NNW,329,1.0,-999.0,44,-99.99,,,0.00,weatherlink.com 1.10,2013-04-04 07:25:00,
2013-04-04 03:40:00,30.4,11.0,30.16,North,0,0.0,-999.0,44,-99.99,,,0.00,weatherlink.com 1.10,2013-04-04 07:40:00,
2013-04-04 03:55:00,30.0,11.0,30.16,NNE,25,0.0,-999.0,46,-99.99,,,0.00,weatherlink.com 1.10,2013-04-04 07:55:00,
2013-04-04 04:10:00,29.4,12.0,30.17,NNE,25,0.0,-999.0,48,-99.99,,,0.00,weatherlink.com 1.10,2013-04-04 08:10:00,
2013-04-04 04:25:00,29.0,12.0,30.17,NNE,27,1.0,-999.0,49,-99.99,,,0.00,weatherlink.com 1.10,2013-04-04 08:25:00,
2013-04-04 04:40:00,28.8,12.0,30.18,NNE,30,0.0,-999.0,49,-99.99,,,0.00,weatherlink.com 1.10,2013-04-04 08:40:00,
2013-04-04 04:55:00,28.5,12.0,30.18,NNE,30,0.0,-999.0,50,-99.99,,,0.00,weatherlink.com 1.10,2013-04-04 08:55:00,
2013-04-04 05:10:00,28.5,11.0,30.18,NNE,27,2.0,-999.0,49,-99.99,,,0.00,weatherlink.com 1.10,2013-04-04 09:10:00,
2013-04-04 05:25:00,28.8,12.0,30.19,NW,323,0.0,-999.0,49,-99.99,,,0.00,weatherlink.com 1.10,2013-04-04 09:25:00,
2013-04-04 05:40:00,28.7,12.0,30.19,NW,322,0.0,-999.0,50,-99.99,,,0.00,weatherlink.com 1.10,2013-04-04 09:40:00,
2013-04-04 05:55:00,28.5,12.0,30.20,NW,322,1.0,-999.0,51,-99.99,,,0.00,weatherlink.com 1.10,2013-04-04 09:55:00,
2013-04-04 06:10:00,28.4,12.0,30.21,WSW,246,2.0,-999.0,51,-99.99,,,0.00,weatherlink.com 1.10,2013-04-04 10:10:00,
2013-04-04 06:25:00,29.0,12.0,30.22,SW,223,2.0,-999.0,50,-99.99,,,0.00,weatherlink.com 1.10,2013-04-04 10:25:00,
2013-04-04 06:41:00,29.3,13.0,30.23,SSW,200,0.0,-999.0,50,-99.99,,,0.00,weatherlink.com 1.10,2013-04-04 10:41:00,
2013-04-04 06:55:00,29.4,12.0,30.23,SW,222,0.0,-999.0,49,-99.99,,,0.00,weatherlink.com 1.10,2013-04-04 10:55:00,
2013-04-04 07:10:00,29.3,13.0,30.24,SW,222,0.0,-999.0,50,-99.99,,,0.00,weatherlink.com 1.10,2013-04-04 11:10:00,
2013-04-04 07:25:00,30.0,13.0,30.25,NE,49,0.0,-999.0,49,-99.99,,,0.00,weatherlink.com 1.10,2013-04-04 11:25:00,
2013-04-04 07:40:00,31.0,12.0,30.25,North,0,2.0,-999.0,46,-99.99,,,0.00,weatherlink.com 1.10,2013-04-04 11:40:00,
2013-04-04 07:55:00,32.1,12.0,30.26,WSW,250,1.0,-999.0,44,-99.99,,,0.00,weatherlink.com 1.10,2013-04-04 11:55:00,
2013-04-04 08:10:00,33.2,12.0,30.27,NE,40,0.0,-999.0,42,-99.99,,,0.00,weatherlink.com 1.10,2013-04-04 12:10:00,
2013-04-04 08:25:00,34.1,11.0,30.27,NNE,28,2.0,-999.0,38,-99.99,,,0.00,weatherlink.com 1.10,2013-04-04 12:25:00,
2013-04-04 08:40:00,35.2,10.0,30.27,South,171,3.0,-999.0,35,-99.99,,,0.00,weatherlink.com 1.10,2013-04-04 12:40:00,
2013-04-04 08:55:00,36.2,10.0,30.27,NW,312,1.0,-999.0,34,-99.99,,,0.00,weatherlink.com 1.10,2013-04-04 12:55:00,
2013-04-04 09:10:00,37.0,10.0,30.26,NE,42,3.0,-999.0,32,-99.99,,,0.00,weatherlink.com 1.10,2013-04-04 13:10:00,
2013-04-04 09:25:00,37.8,8.0,30.26,WSW,247,2.0,-999.0,29,-99.99,,,0.00,weatherlink.com 1.10,2013-04-04 13:25:00,
2013-04-04 09:40:00,38.5,8.0,30.26,NE,34,5.0,-999.0,28,-99.99,,,0.00,weatherlink.com 1.10,2013-04-04 13:40:00,
2013-04-04 09:55:00,39.1,7.0,30.26,North,0,1.0,-999.0,26,-99.99,,,0.00,weatherlink.com 1.10,2013-04-04 13:55:00,
2013-04-04 10:10:00,39.9,5.0,30.25,NW,304,3.0,-999.0,23,-99.99,,,0.00,weatherlink.com 1.10,2013-04-04 14:10:00,
2013-04-04 10:25:00,40.8,5.0,30.25,NNE,24,3.0,-999.0,23,-99.99,,,0.00,weatherlink.com 1.10,2013-04-04 14:25:00,
2013-04-04 10:40:00,41.8,5.0,30.24,NNE,18,3.0,-999.0,22,-99.99,,,0.00,weatherlink.com 1.10,2013-04-04 14:40:00,
2013-04-04 10:55:00,43.2,6.0,30.24,WSW,244,1.0,-999.0,21,-99.99,,,0.00,weatherlink.com 1.10,2013-04-04 14:55:00,
2013-04-04 11:10:00,43.6,5.0,30.22,NNW,337,3.0,-999.0,20,-99.99,,,0.00,weatherlink.com 1.10,2013-04-04 15:10:00,
2013-04-04 11:26:00,44.3,5.0,30.22,SSW,208,3.0,-999.0,20,-99.99,,,0.00,weatherlink.com 1.10,2013-04-04 15:26:00,
2013-04-04 11:40:00,45.7,4.0,30.21,NE,47,5.0,-999.0,18,-99.99,,,0.00,weatherlink.com 1.10,2013-04-04 15:40:00,
2013-04-04 11:55:00,46.5,5.0,30.20,SW,234,2.0,-999.0,18,-99.99,,,0.00,weatherlink.com 1.10,2013-04-04 15:55:00,
2013-04-04 12:10:00,47.4,7.0,30.20,South,188,0.0,-999.0,19,-99.99,,,0.00,weatherlink.com 1.10,2013-04-04 16:10:00,
2013-04-04 12:25:00,47.9,5.0,30.19,SW,229,7.0,-999.0,17,-99.99,,,0.00,weatherlink.com 1.10,2013-04-04 16:25:00,
2013-04-04 12:40:00,48.6,5.0,30.18,ENE,68,1.0,-999.0,17,-99.99,,,0.00,weatherlink.com 1.10,2013-04-04 16:40:00,
2013-04-04 12:55:00,49.8,5.0,30.17,NW,316,6.0,-999.0,16,-99.99,,,0.00,weatherlink.com 1.10,2013-04-04 16:55:00,
2013-04-04 13:11:00,50.5,6.0,30.17,North,0,0.0,-999.0,16,-99.99,,,0.00,weatherlink.com 1.10,2013-04-04 17:11:00,
2013-04-04 13:25:00,51.6,7.0,30.16,WNW,289,2.0,-999.0,16,-99.99,,,0.00,weatherlink.com 1.10,2013-04-04 17:25:00,
2013-04-04 13:40:00,51.9,4.0,30.15,NW,322,2.0,-999.0,14,-99.99,,,0.00,weatherlink.com 1.10,2013-04-04 17:40:00,
2013-04-04 13:55:00,52.8,5.0,30.14,WSW,251,5.0,-999.0,14,-99.99,,,0.00,weatherlink.com 1.10,2013-04-04 17:55:00,
2013-04-04 14:10:00,53.3,3.0,30.14,WSW,253,4.0,-999.0,13,-99.99,,,0.00,weatherlink.com 1.10,2013-04-04 18:10:00,
2013-04-04 14:25:00,53.9,4.0,30.13,WSW,239,11.0,-999.0,13,-99.99,,,0.00,weatherlink.com 1.10,2013-04-04 18:25:00,
2013-04-04 14:40:00,54.5,8.0,30.12,WSW,246,2.0,-999.0,15,-99.99,,,0.00,weatherlink.com 1.10,2013-04-04 18:40:00,
2013-04-04 14:55:00,55.4,7.0,30.11,SW,236,5.0,-999.0,14,-99.99,,,0.00,weatherlink.com 1.10,2013-04-04 18:55:00,
2013-04-04 15:10:00,54.2,6.0,30.11,SW,220,3.0,-999.0,14,-99.99,,,0.00,weatherlink.com 1.10,2013-04-04 19:10:00,
2013-04-04 15:25:00,55.4,5.0,30.09,SW,217,2.0,-999.0,13,-99.99,,,0.00,weatherlink.com 1.10,2013-04-04 19:25:00,
2013-04-04 15:40:00,56.0,7.0,30.08,WSW,257,1.0,-999.0,14,-99.99,,,0.00,weatherlink.com 1.10,2013-04-04 19:40:00,
2013-04-04 16:01:00,56.2,6.0,30.06,SW,229,6.0,-999.0,13,-99.99,,,0.00,weatherlink.com 1.10,2013-04-04 20:01:00,
2013-04-04 16:10:00,55.9,7.0,30.06,West,278,5.0,-999.0,14,-99.99,,,0.00,weatherlink.com 1.10,2013-04-04 20:10:00,
2013-04-04 16:25:00,55.6,7.0,30.06,WSW,239,3.0,-999.0,14,-99.99,,,0.00,weatherlink.com 1.10,2013-04-04 20:25:00,
2013-04-04 16:40:00,55.7,8.0,30.05,SW,222,3.0,-999.0,15,-99.99,,,0.00,weatherlink.com 1.10,2013-04-04 20:40:00,
2013-04-04 16:55:00,55.6,8.0,30.04,SW,233,2.0,-999.0,15,-99.99,,,0.00,weatherlink.com 1.10,2013-04-04 20:55:00,
2013-04-04 17:10:00,55.7,8.0,30.03,WSW,246,2.0,-999.0,15,-99.99,,,0.00,weatherlink.com 1.10,2013-04-04 21:10:00,
2013-04-04 17:25:00,55.0,8.0,30.03,WNW,285,5.0,-999.0,15,-99.99,,,0.00,weatherlink.com 1.10,2013-04-04 21:25:00,
2013-04-04 17:40:00,54.5,9.0,30.03,SW,222,4.0,-999.0,16,-99.99,,,0.00,weatherlink.com 1.10,2013-04-04 21:40:00,
2013-04-04 17:55:00,54.1,9.0,30.03,SW,222,5.0,-999.0,16,-99.99,,,0.00,weatherlink.com 1.10,2013-04-04 21:55:00,
2013-04-04 18:10:00,53.6,8.0,30.03,WSW,240,5.0,-999.0,16,-99.99,,,0.00,weatherlink.com 1.10,2013-04-04 22:10:00,
2013-04-04 18:25:00,52.9,9.0,30.03,WSW,258,4.0,-999.0,17,-99.99,,,0.00,weatherlink.com 1.10,2013-04-04 22:25:00,
2013-04-04 18:40:00,52.3,8.0,30.03,WSW,251,4.0,-999.0,17,-99.99,,,0.00,weatherlink.com 1.10,2013-04-04 22:40:00,
2013-04-04 18:55:00,51.7,9.0,30.02,WSW,243,6.0,-999.0,18,-99.99,,,0.00,weatherlink.com 1.10,2013-04-04 22:55:00,
2013-04-04 19:10:00,51.1,9.0,30.02,WSW,247,3.0,-999.0,18,-99.99,,,0.00,weatherlink.com 1.10,2013-04-04 23:10:00,
2013-04-04 19:25:00,50.5,9.0,30.02,West,260,0.0,-999.0,19,-99.99,,,0.00,weatherlink.com 1.10,2013-04-04 23:25:00,
2013-04-04 19:40:00,49.6,10.0,30.02,WSW,258,2.0,-999.0,20,-99.99,,,0.00,weatherlink.com 1.10,2013-04-04 23:40:00,
2013-04-04 19:55:00,48.8,11.0,30.02,SW,233,0.0,-999.0,22,-99.99,,,0.00,weatherlink.com 1.10,2013-04-04 23:55:00,
2013-04-04 20:10:00,48.2,11.0,30.02,SW,234,2.0,-999.0,22,-99.99,,,0.00,weatherlink.com 1.10,2013-04-05 00:10:00,
2013-04-04 20:25:00,47.7,11.0,30.02,SW,230,2.0,-999.0,23,-99.99,,,0.00,weatherlink.com 1.10,2013-04-05 00:25:00,
2013-04-04 20:40:00,47.4,13.0,30.03,SW,230,2.0,-999.0,25,-99.99,,,0.00,weatherlink.com 1.10,2013-04-05 00:40:00,
2013-04-04 20:55:00,47.1,14.0,30.03,SW,227,3.0,-999.0,26,-99.99,,,0.00,weatherlink.com 1.10,2013-04-05 00:55:00,
2013-04-04 21:10:00,46.7,13.0,30.03,SSW,205,8.0,-999.0,26,-99.99,,,0.00,weatherlink.com 1.10,2013-04-05 01:10:00,
2013-04-04 21:25:00,46.5,14.0,30.03,SW,233,2.0,-999.0,27,-99.99,,,0.00,weatherlink.com 1.10,2013-04-05 01:25:00,
2013-04-04 21:40:00,46.2,15.0,30.03,SSW,203,1.0,-999.0,28,-99.99,,,0.00,weatherlink.com 1.10,2013-04-05 01:40:00,
2013-04-04 21:55:00,45.8,15.0,30.02,SW,223,6.0,-999.0,29,-99.99,,,0.00,weatherlink.com 1.10,2013-04-05 01:55:00,
2013-04-04 22:10:00,45.5,16.0,30.02,SW,222,1.0,-999.0,30,-99.99,,,0.00,weatherlink.com 1.10,2013-04-05 02:10:00,
2013-04-04 22:25:00,44.9,16.0,30.02,WSW,239,2.0,-999.0,31,-99.99,,,0.00,weatherlink.com 1.10,2013-04-05 02:25:00,
2013-04-04 22:40:00,44.3,16.0,30.01,WSW,237,0.0,-999.0,32,-99.99,,,0.00,weatherlink.com 1.10,2013-04-05 02:40:00,
2013-04-04 22:55:00,43.6,17.0,30.00,WSW,237,0.0,-999.0,34,-99.99,,,0.00,weatherlink.com 1.10,2013-04-05 02:55:00,
2013-04-04 23:10:00,43.2,17.0,30.00,NW,308,0.0,-999.0,35,-99.99,,,0.00,weatherlink.com 1.10,2013-04-05 03:10:00,
2013-04-04 23:25:00,42.8,17.0,29.99,SSW,208,6.0,-999.0,36,-99.99,,,0.00,weatherlink.com 1.10,2013-04-05 03:25:00,
2013-04-04 23:40:00,42.5,18.0,29.99,West,275,5.0,-999.0,37,-99.99,,,0.00,weatherlink.com 1.10,2013-04-05 03:40:00,
2013-04-04 23:55:00,42.3,18.0,29.99,WSW,237,5.0,-999.0,38,-99.99,,,0.00,weatherlink.com 1.10,2013-04-05 03:55:00,